Regional Weather Roundup
Issued by NWS

Home | Current Version | Previous Version | Text Only | Print | Product List | Glossary On
Versions: 1 2 3 4 5 6 7 8 9 10 11 12 13 14 15 16 17 18 19 20 21 22 23 24 25 26 27 28 29 30 31 32 33 34 35 36 37 38 39 40 41 42 43 44 45 46 47 48 49 50
039
ASUS45 KBOI 231210
RWRID

IDAHO REGIONAL WEATHER ROUNDUP
NATIONAL WEATHER SERVICE BOISE ID
600 AM MDT MON APR 23 2018

NOTE: "FAIR" INDICATES FEW OR NO CLOUDS BELOW 12000 FEET
WITH NO SIGNIFICANT WEATHER AND/OR OBSTRUCTIONS TO VISIBILITY

IDZ012-014-231300-
SOUTHWEST IDAHO


CITY           SKY/WX    TMP DP  RH WIND       PRES   REMARKS
BOISE          CLEAR     40  25  55 W9        30.18R WCI  34
CALDWELL       CLEAR     40  27  59 W12       30.20R WCI  33
MOUNTAIN HOME  CLEAR     41  25  53 NW16G25   30.16R
$$

IDZ016-017-231300-
SOUTHCENTRAL IDAHO


CITY           SKY/WX    TMP DP  RH WIND       PRES   REMARKS
BURLEY         CLEAR     39  25  57 W17G33    30.10R WCI  30
JEROME         CLEAR     38  26  62 SW16      30.12R WCI  29
TWIN FALLS     CLEAR     37  26  64 SW18      30.14R WCI  27
$$

IDZ019>023-231300-
SOUTHEAST IDAHO


CITY           SKY/WX    TMP DP  RH WIND       PRES   REMARKS
IDAHO FALLS    MOCLDY    43  39  86 CALM      30.08S
POCATELLO      PTCLDY    41  32  70 SW17      30.11R
REXBURG        CLOUDY    42  39  89 CALM      30.06F
$$

IDZ006-010-011-018-031-032-231300-
CENTRAL IDAHO MOUNTAINS


CITY           SKY/WX    TMP DP  RH WIND       PRES   REMARKS
MCCALL         CLEAR     35  20  54 N12G22    30.15R WCI  27
HAILEY         CLEAR     36  32  87 NW6       30.07R WCI  31
STANLEY          N/A     28  25  88 CALM      30.11R
SALMON         LGT RAIN  43  32  65 N8        30.15R
CHALLIS        MOCLDY    42  27  55 N9        30.10R
$$

IDZ002-004-006-007-026-231300-
NORTHERN IDAHO


CITY           SKY/WX    TMP DP  RH WIND       PRES   REMARKS
LEWISTON       CLEAR     40  29  64 SW3       30.28R
LOWELL           N/A     35  33  92 CALM      30.33R
COEUR D`ALENE  CLEAR     33  25  72 NE8       30.29R WCI  26
MULLAN PASS    CLEAR     30  17  58 CALM      30.21S
$$




USA.gov is the U.S. government's official web portal to all federal, state and local government web resources and services.